Northfield, Minnesota, United States (55057)
Lat: 44.46N, Lon: 93.16W
Wx Zone: MNZ077
Local Info
Past Weather Observations for Today

NOTE: This archive is for the closest National Weather Service station to Northfield. Information may differ from the station used for current weather conditions.

Time Weather Temperature Dewpoint Humidity Pressure Winds Precip Visibility
20:32
Overcast
45°F / 7°C 39°F / 4°C 81% 29.71 in
(1006 mb)
NW 8.1 mph
(NW 13 kph)
- 10SM
20:12
Overcast
46°F / 8°C 41°F / 5°C 82% 29.71 in
(1006 mb)
W 4.6 mph
(W 7 kph)
- 10SM
19:52
Overcast
46°F / 8°C 41°F / 5°C 82% 29.71 in
(1006 mb)
W 4.6 mph
(W 7 kph)
- 10SM
19:32
Overcast
46°F / 8°C 41°F / 5°C 82% 29.71 in
(1006 mb)
WNW 5.8 mph
(WNW 9 kph)
- 10SM
19:13
Overcast
46°F / 8°C 41°F / 5°C 82% 29.71 in
(1006 mb)
NW 8.1 mph
(NW 13 kph)
- 10SM
18:52
Overcast
46°F / 8°C 41°F / 5°C 82% 29.71 in
(1006 mb)
WNW 9.2 mph
(WNW 15 kph)
- 10SM
18:32
Overcast
46°F / 8°C 41°F / 5°C 82% 29.68 in
(1005 mb)
NW 8.1 mph
(NW 13 kph)
- 10SM
18:12
Overcast
46°F / 8°C 43°F / 6°C 87% 29.68 in
(1005 mb)
WNW 6.9 mph
(WNW 11 kph)
- 10SM
17:52
Overcast
46°F / 8°C 41°F / 5°C 82% 29.68 in
(1005 mb)
NW 5.8 mph
(NW 9 kph)
- 10SM
17:32
Overcast
46°F / 8°C 41°F / 5°C 82% 29.68 in
(1005 mb)
NW 9.2 mph
(NW 15 kph)
- 10SM
17:12
Overcast
48°F / 9°C 43°F / 6°C 82% 29.68 in
(1005 mb)
NW 9.2 mph
(NW 15 kph)
- 10SM
16:52
Overcast
46°F / 8°C 43°F / 6°C 87% 29.68 in
(1005 mb)
WNW 5.8 mph
(WNW 9 kph)
- 10SM
16:32
Overcast
46°F / 8°C 43°F / 6°C 87% 29.68 in
(1005 mb)
NW 5.8 mph
(NW 9 kph)
- 7SM
16:12
Overcast
45°F / 7°C 41°F / 5°C 87% 29.65 in
(1004 mb)
W 5.8 mph
(W 9 kph)
- 7SM
15:53
Overcast
45°F / 7°C 41°F / 5°C 87% 29.65 in
(1004 mb)
Calm - 7SM
15:32
Overcast
45°F / 7°C 41°F / 5°C 87% 29.65 in
(1004 mb)
SSW 3.5 mph
(SSW 6 kph)
- 7SM
15:12
Overcast
45°F / 7°C 41°F / 5°C 87% 29.65 in
(1004 mb)
Calm - 7SM
14:53
Overcast
Drizzle
45°F / 7°C 41°F / 5°C 87% 29.65 in
(1004 mb)
Calm - 7SM
14:32
Overcast
45°F / 7°C 41°F / 5°C 87% 29.65 in
(1004 mb)
E 3.5 mph
(E 6 kph)
- 7SM
14:12
Overcast
45°F / 7°C 41°F / 5°C 87% 29.68 in
(1005 mb)
Calm - 7SM
13:52
Overcast
Fog And Mist
43°F / 6°C 41°F / 5°C 93% 29.68 in
(1005 mb)
Calm 0.01 in
(0.25 mm)
5SM
13:32
Overcast
Fog And Mist
43°F / 6°C 41°F / 5°C 93% 29.68 in
(1005 mb)
Calm 0.01 in
(0.25 mm)
2 1/2SM
13:12
Overcast
Drizzle
43°F / 6°C 41°F / 5°C 93% 29.68 in
(1005 mb)
Calm - 2 1/2SM
12:52
Overcast
Drizzle
43°F / 6°C 41°F / 5°C 93% 29.68 in
(1005 mb)
Calm - 2SM
12:32
Overcast
Drizzle
43°F / 6°C 39°F / 4°C 87% 29.68 in
(1005 mb)
SE 3.5 mph
(SE 6 kph)
- 2SM
12:12
Overcast
Drizzle
43°F / 6°C 39°F / 4°C 87% 29.68 in
(1005 mb)
Calm - 2 1/2SM
11:52
Overcast
Rain
43°F / 6°C 39°F / 4°C 87% 29.68 in
(1005 mb)
Calm 0.01 in
(0.25 mm)
2 1/2SM
11:33
Overcast
Drizzle
43°F / 6°C 39°F / 4°C 87% 29.71 in
(1006 mb)
SE 6.9 mph
(SE 11 kph)
0.01 in
(0.25 mm)
4SM
11:12
Overcast
Drizzle
43°F / 6°C 39°F / 4°C 87% 29.71 in
(1006 mb)
ESE 6.9 mph
(ESE 11 kph)
0.01 in
(0.25 mm)
4SM
10:52
Overcast
Drizzle
43°F / 6°C 39°F / 4°C 87% 29.71 in
(1006 mb)
SE 3.5 mph
(SE 6 kph)
0.01 in
(0.25 mm)
5SM
10:33
Overcast
Drizzle
43°F / 6°C 39°F / 4°C 87% 29.74 in
(1007 mb)
ESE 5.8 mph
(ESE 9 kph)
0.01 in
(0.25 mm)
4SM
10:12
Overcast
Rain
43°F / 6°C 39°F / 4°C 87% 29.71 in
(1006 mb)
SE 6.9 mph
(SE 11 kph)
- 5SM
09:52
Overcast
Rain
43°F / 6°C 39°F / 4°C 87% 29.71 in
(1006 mb)
ESE 9.2 mph
(ESE 15 kph)
0.05 in
(1.27 mm)
4SM
09:33
Overcast
Drizzle
43°F / 6°C 39°F / 4°C 87% 29.71 in
(1006 mb)
ESE 10.4 mph
(ESE 17 kph)
0.02 in
(0.51 mm)
4SM
09:12
Overcast
Rain
43°F / 6°C 39°F / 4°C 87% 29.74 in
(1007 mb)
SE 8.1 mph
(SE 13 kph)
0.01 in
(0.25 mm)
4SM
08:52
Overcast
Rain
43°F / 6°C 39°F / 4°C 87% 29.74 in
(1007 mb)
SE 6.9 mph
(SE 11 kph)
0.10 in
(2.54 mm)
4SM
08:33
Overcast
Rain
41°F / 5°C 37°F / 3°C 87% 29.74 in
(1007 mb)
ESE 8.1 mph
(ESE 13 kph)
0.06 in
(1.52 mm)
4SM
08:12
Overcast
Light Rain
41°F / 5°C 37°F / 3°C 87% 29.74 in
(1007 mb)
ESE 5.8 mph
(ESE 9 kph)
- 10SM
07:52
Overcast
Light Rain
41°F / 5°C 37°F / 3°C 87% 29.74 in
(1007 mb)
ESE 9.2 mph
(ESE 15 kph)
0.04 in
(1.02 mm)
7SM
07:33
Overcast
Rain
41°F / 5°C 37°F / 3°C 87% 29.74 in
(1007 mb)
ESE 8.1 mph
(ESE 13 kph)
0.03 in
(0.76 mm)
7SM
07:12
Overcast
Light Rain
41°F / 5°C 37°F / 3°C 87% 29.77 in
(1008 mb)
SE 10.4 mph
(SE 17 kph)
0.01 in
(0.25 mm)
10SM
06:52
Overcast
Drizzle
41°F / 5°C 37°F / 3°C 87% 29.77 in
(1008 mb)
ESE 11.5 mph
(ESE 19 kph)
0.01 in
(0.25 mm)
10SM
06:33
Overcast
Light Rain
41°F / 5°C 37°F / 3°C 87% 29.77 in
(1008 mb)
ESE 11.5 mph
(ESE 19 kph)
0.01 in
(0.25 mm)
10SM
06:12
Overcast
Rain
41°F / 5°C 37°F / 3°C 87% 29.77 in
(1008 mb)
ESE 11.5 mph
(ESE 19 kph)
0.01 in
(0.25 mm)
7SM
05:52
Overcast
Rain
41°F / 5°C 37°F / 3°C 87% 29.77 in
(1008 mb)
ESE 12.7 mph
(ESE 20 kph)
0.08 in
(2.03 mm)
5SM
05:33
Overcast
Rain
41°F / 5°C 37°F / 3°C 87% 29.8 in
(1009 mb)
SE 12.7 mph
(SE 20 kph)
0.04 in
(1.02 mm)
7SM
05:12
Overcast
41°F / 5°C 37°F / 3°C 87% 29.77 in
(1008 mb)
SE 10.4 mph
(SE 17 kph)
0.02 in
(0.51 mm)
7SM
04:52
Overcast
Rain
41°F / 5°C 37°F / 3°C 87% 29.8 in
(1009 mb)
ESE 11.5 mph
(ESE 19 kph)
0.11 in
(2.79 mm)
7SM
04:33
Overcast
Rain
41°F / 5°C 37°F / 3°C 87% 29.8 in
(1009 mb)
SE 11.5 mph
(SE 19 kph)
0.07 in
(1.78 mm)
5SM
04:12
Overcast
Rain
43°F / 6°C 39°F / 4°C 87% 29.8 in
(1009 mb)
ESE 10.4 mph
(ESE 17 kph)
0.01 in
(0.25 mm)
5SM
03:53
Overcast
Rain
43°F / 6°C 39°F / 4°C 87% 29.8 in
(1009 mb)
SE 8.1 mph
(SE 13 kph)
0.06 in
(1.52 mm)
5SM
03:32
Overcast
Light Rain
43°F / 6°C 39°F / 4°C 87% 29.83 in
(1010 mb)
ESE 11.5 mph
(ESE 19 kph)
0.03 in
(0.76 mm)
7SM
03:12
Overcast
Light Rain
43°F / 6°C 39°F / 4°C 87% 29.83 in
(1010 mb)
SE 13.8 mph
(SE 22 kph)
0.01 in
(0.25 mm)
7SM
02:53
Overcast
Drizzle
43°F / 6°C 39°F / 4°C 87% 29.83 in
(1010 mb)
SE 10.4 mph
(SE 17 kph)
- 7SM
02:32
Overcast
Drizzle
45°F / 7°C 37°F / 3°C 76% 29.83 in
(1010 mb)
SE 12.7 mph
(SE 20 kph)
- 10SM
02:12
Overcast
45°F / 7°C 37°F / 3°C 76% 29.83 in
(1010 mb)
SE 10.4 mph
(SE 17 kph)
- 10SM
01:52
Overcast
45°F / 7°C 39°F / 4°C 81% 29.83 in
(1010 mb)
SE 16.1 mph
(SE 26 kph)
- 10SM
01:32
Overcast
Rain
43°F / 6°C 39°F / 4°C 87% 29.86 in
(1011 mb)
SE 11.5 mph
(SE 19 kph)
- 7SM
01:12
Overcast
Light Rain
45°F / 7°C 37°F / 3°C 76% 29.89 in
(1012 mb)
ESE 11.5 mph
(ESE 19 kph)
- 5SM
00:52
Overcast
Drizzle
45°F / 7°C 37°F / 3°C 76% 29.89 in
(1012 mb)
ESE 10.4 mph
(ESE 17 kph)
- 10SM
00:32
Overcast
45°F / 7°C 37°F / 3°C 76% 29.89 in
(1012 mb)
E 12.7 mph
(E 20 kph)
- 10SM
00:12
Overcast
45°F / 7°C 37°F / 3°C 76% 29.92 in
(1013 mb)
E 9.2 mph
(E 15 kph)
- 10SM
Time Weather Temperature Dewpoint Humidity Pressure Winds Precip Visibility


Weather for websites

WeatherForYou.com, LLC is not responsible for any damages or problems caused by this service. Current weather conditions are obtained from the closest station including government and personal stations which may have varying degrees of accuracy. Weather forecasts are derived from the NOAA NDFD. Like all things, this site belongs to Jesus Christ... He just trusts me to maintain it. If you have any questions or comments email webmaster@weatherforyou.com

Copyright © 2014, WeatherForYou.com LLC. All rights reserved.